GW4746 Weather Reports


Display with metric or nautical units.
time (UTC)temp
F
wind
direction
speed
MPH
gust
MPH
rain 1hr
in
rain 24hr
in
rain mn
in
humidity
%
barometer
mb
20260906053030 83 64 0.0 1.0 0.00 0.00 0.00 51 1014.6
20260906051550 84 82 0.0 2.0 0.00 0.00 0.00 49 1014.8
20260906050023 84 105 0.0 2.0 0.00 0.00 0.00 48 1014.6
20260906044526 85 155 0.0 1.0 0.00 0.00 0.00 48 1014.7
20260906043005 85 82 1.0 3.0 0.00 0.00 0.00 48 1014.7
20260906041513 86 158 0.0 6.0 0.00 0.00 0.00 47 1014.7
20260906040037 86 134 1.0 4.0 0.00 0.00 0.00 47 1014.6
20260906034529 87 162 1.0 3.0 0.00 0.00 0.00 45 1014.4
20260906033028 87 129 1.0 4.0 0.00 0.00 0.00 44 1014.3
20260906031507 88 113 1.0 4.0 0.00 0.00 0.00 43 1014.0
20260906030034 88 75 1.0 7.0 0.00 0.00 0.00 43 1013.9
20260906024521 89 88 2.0 4.0 0.00 0.00 0.00 42 1013.6
20260906023033 90 96 3.0 9.0 0.00 0.00 0.00 41 1013.4
20260906021535 90 96 2.0 6.0 0.00 0.00 0.00 40 1013.2
20260906020029 91 129 2.0 5.0 0.00 0.00 0.00 39 1013.1
20260906014525 91 124 1.0 7.0 0.00 0.00 0.00 38 1012.9
20260906013003 92 100 2.0 6.0 0.00 0.00 0.00 37 1012.6
20260906011504 93 114 2.0 7.0 0.00 0.00 0.00 37 1012.3
20260906010011 93 105 2.0 5.0 0.00 0.00 0.00 37 1012.1
20260906004513 94 101 3.0 10.0 0.00 0.00 0.00 36 1012.0
20260906003011 95 143 3.0 8.0 0.00 0.00 0.00 35 1012.0
20260906001510 95 131 3.0 12.0 0.00 0.00 0.00 35 1011.9
20260906000006 96 148 2.0 4.0 0.00 0.00 0.00 35 1011.8
20260905234511 97 131 1.0 3.0 0.00 0.00 0.00 36 1011.7
20260905233014 97 94 2.0 6.0 0.00 0.00 0.00 35 1011.6
20260905231522 98 85 2.0 6.0 0.00 0.00 0.00 34 1011.4
20260905230004 99 117 2.0 6.0 0.00 0.00 0.00 33 1011.5
20260905224515 99 105 1.0 10.0 0.00 0.00 0.00 32 1011.6
20260905223008 99 164 0.0 4.0 0.00 0.00 0.00 33 1011.6
20260905221518 98 68 2.0 5.0 0.00 0.00 0.00 33 1011.7
20260905220017 100 167 2.0 4.0 0.00 0.00 0.00 33 1011.7
20260905214521 100 298 2.0 4.0 0.00 0.00 0.00 33 1011.8
20260905213007 100 99 2.0 7.0 0.00 0.00 0.00 33 1012.0
20260905211510 99 224 1.0 6.0 0.00 0.00 0.00 35 1012.2
20260905210017 99 271 1.0 4.0 0.00 0.00 0.00 34 1012.5
20260905204520 100 147 1.0 8.0 0.00 0.00 0.00 35 1012.7
20260905203020 100 220 1.0 4.0 0.00 0.00 0.00 35 1013.1
20260905201504 98 103 3.0 9.0 0.00 0.00 0.00 36 1013.3
20260905200007 98 139 2.0 6.0 0.00 0.00 0.00 37 1013.5
20260905194513 97 198 1.0 5.0 0.00 0.00 0.00 38 1013.8
20260905193022 98 62 3.0 8.0 0.00 0.00 0.00 37 1014.0
20260905191523 100 265 0.0 5.0 0.00 0.00 0.00 36 1014.2
20260905190024 100 164 1.0 7.0 0.00 0.00 0.00 37 1014.5
20260905184512 98 98 1.0 4.0 0.00 0.00 0.00 39 1014.6
20260905183023 98 107 1.0 3.0 0.00 0.00 0.00 40 1014.7
20260905181528 97 248 1.0 4.0 0.00 0.00 0.00 42 1015.1
20260905180022 94 115 1.0 3.0 0.00 0.00 0.00 45 1015.1
20260905174534 94 214 0.0 3.0 0.00 0.00 0.00 45 1015.4
20260905173012 96 301 1.0 5.0 0.00 0.00 0.00 42 1015.5
20260905171527 94 147 1.0 6.0 0.00 0.00 0.00 45 1015.7
20260905170026 93 103 2.0 5.0 0.00 0.00 0.00 48 1015.7
20260905164528 93 47 1.0 5.0 0.00 0.00 0.00 48 1015.7
20260905163008 92 142 1.0 5.0 0.00 0.00 0.00 50 1015.9
20260905161512 91 162 1.0 3.0 0.00 0.00 0.00 51 1016.1
20260905160020 90 166 1.0 4.0 0.00 0.00 0.00 53 1016.1
20260905154504 89 266 1.0 3.0 0.00 0.00 0.00 54 1016.1
20260905153029 88 207 1.0 4.0 0.00 0.00 0.00 56 1016.0
20260905151509 87 248 1.0 5.0 0.00 0.00 0.00 56 1016.0
20260905150021 87 220 2.0 5.0 0.00 0.00 0.00 56 1015.9
20260905144503 86 166 2.0 3.0 0.00 0.00 0.00 57 1015.8
20260905143004 85 153 1.0 3.0 0.00 0.00 0.00 58 1016.0
20260905141508 84 144 1.0 3.0 0.00 0.00 0.00 60 1016.2
20260905140008 82 156 1.0 3.0 0.00 0.00 0.00 63 1016.0
20260905134522 81 160 1.0 2.0 0.00 0.00 0.00 65 1015.9
20260905133021 79 179 0.0 2.0 0.00 0.00 0.00 69 1015.8
20260905131511 77 101 0.0 2.0 0.00 0.00 0.00 72 1015.7
20260905130030 76 191 0.0 0.0 0.00 0.00 0.00 73 1015.4
20260905124512 76 167 0.0 0.0 0.00 0.00 0.00 74 1015.5
20260905123022 75 148 0.0 1.0 0.00 0.00 0.00 74 1015.2
20260905121523 75 165 0.0 2.0 0.00 0.00 0.00 74 1015.0
20260905120019 76 161 0.0 1.0 0.00 0.00 0.00 73 1015.0
20260905114513 76 159 0.0 2.0 0.00 0.00 0.00 73 1015.0
20260905113013 76 53 0.0 1.0 0.00 0.00 0.00 72 1015.0
20260905111522 76 161 0.0 2.0 0.00 0.00 0.00 72 1015.0
20260905110033 76 176 0.0 2.0 0.00 0.00 0.00 71 1014.8
20260905104515 76 154 0.0 2.0 0.00 0.00 0.00 71 1014.9
20260905103013 77 161 0.0 2.0 0.00 0.00 0.00 70 1014.8
20260905101514 77 158 0.0 1.0 0.00 0.00 0.00 69 1014.9
20260905100031 78 155 0.0 3.0 0.00 0.00 0.00 68 1015.0
20260905094552 78 167 0.0 3.0 0.00 0.00 0.00 68 1014.7
20260905093008 78 154 1.0 2.0 0.00 0.00 0.00 67 1014.9
20260905091512 78 171 0.0 2.0 0.00 0.00 0.00 67 1015.0
20260905090034 79 186 1.0 3.0 0.00 0.00 0.00 66 1014.7
20260905084524 79 148 0.0 4.0 0.00 0.00 0.00 64 1014.9
20260905083031 79 154 1.0 3.0 0.00 0.00 0.00 63 1014.8
20260905081535 80 194 1.0 5.0 0.00 0.00 0.00 62 1014.7
20260905080031 80 148 2.0 5.0 0.00 0.00 0.00 61 1014.5
20260905074518 80 231 1.0 4.0 0.00 0.00 0.00 60 1014.6
20260905073033 80 144 1.0 2.0 0.00 0.00 0.00 60 1014.6
20260905071534 81 157 1.0 3.0 0.00 0.00 0.00 60 1014.7
20260905070010 81 152 0.0 4.0 0.00 0.00 0.00 60 1014.8
20260905064514 81 173 0.0 3.0 0.00 0.00 0.00 60 1014.7
20260905063031 82 164 0.0 2.0 0.00 0.00 0.00 60 1014.8
20260905061540 82 148 0.0 4.0 0.00 0.00 0.00 59 1014.7
20260905060051 82 165 0.0 3.0 0.00 0.00 0.00 60 1014.6
20260905054545 82 76 0.0 3.0 0.00 0.00 0.00 57 1014.7